Tracking 30923 objects as of 1-Jul-2025
HD Live streaming from Space Station
objects crossing your sky now

STARLINK-11191

Track STARLINK-11191 now!
10-day predictions
STARLINK-11191 is classified as:


NORAD ID: 60410
Int'l Code: 2024-141N
Perigee: 366.0 km
Apogee: 367.7 km
Inclination: 53.2 °
Period: 91.7 minutes
Semi major axis: 6737 km
RCS: Unknown
Launch date: August 10, 2024
Source: United States (US)
Launch site: AIR FORCE EASTERN TEST RANGE (AFETR)
Your satellite tracking list
FREGAT DEB
Track 1 satellite(s)




NASA's NSSDC Master Catalog

Two Line Element Set (TLE):
1 60410U 24141N   25181.49171530  .00000010  00000-0  49400-5 0  9993
2 60410  53.1595 249.4092 0001221  52.6334 307.4795 15.69707687 52132
Source of the keplerian elements: AFSPC